Theta_e
330 327 328 329 330 330 331 331 331 332 334 333 335 332 332 334 342 343 342 347 348 349 348 348 347 346 348 349 350 349 349 349 350 350 349 346 344 346 347 345 348 346 347 346
328 327 330 331 330 329 329 331 330 332 335 333 331 332 332 333 334 338 342 341 348 348 349 348 348 347 347 350 350 349 350 350 349 348 348 348 346 343 344 345 347 345 345 343
327 329 330 331 330 329 327 327 329 330 333 332 331 331 333 337 335 335 339 340 341 348 349 348 348 347 347 349 349 350 349 350 349 348 349 346 346 345 343 346 344 344 345 338
328 329 329 328 328 328 326 327 329 332 330 331 331 330 330 336 335 335 335 336 339 347 349 349 348 348 348 348 349 350 349 348 350 350 350 351 346 345 346 344 344 344 340 345
327 328 328 328 327 327 327 329 331 332 331 330 331 331 334 335 336 336 337 339 339 344 349 349 349 348 348 349 350 349 350 349 349 351 347 350 348 347 346 345 346 344 341 344
327 330 329 330 330 328 329 329 329 328 328 330 330 335 336 335 336 335 340 340 341 344 349 350 350 349 348 349 349 350 351 351 349 346 345 346 350 349 348 346 343 345 341 345
327 329 329 329 330 329 328 327 327 331 331 331 333 336 334 332 333 335 339 342 342 345 349 350 351 350 349 349 349 350 352 351 351 347 350 346 346 346 347 346 344 343 344 346
328 331 330 329 329 330 330 328 328 334 332 334 333 335 333 334 334 336 341 343 342 342 346 349 351 351 350 350 350 351 352 352 352 351 348 349 349 348 347 345 343 345 347 347
332 333 333 331 331 331 331 328 328 327 328 330 334 336 333 334 336 338 339 342 344 344 345 347 350 350 351 350 351 351 352 353 352 351 350 351 351 348 346 344 344 344 347 346
332 331 331 332 332 330 330 329 329 327 332 333 332 337 337 336 337 339 342 344 344 345 346 347 336 351 351 351 350 350 352 352 353 353 351 352 351 348 346 343 344 345 347 348
332 332 332 332 331 332 331 331 331 329 333 336 334 336 336 343 343 344 344 345 344 344 346 348 346 350 350 350 352 352 352 352 353 354 349 352 351 348 347 345 343 345 347 349
331 330 331 331 330 330 329 330 328 336 336 334 336 332 339 338 338 342 343 341 344 344 345 346 350 345 351 350 352 352 353 353 353 354 350 354 351 348 348 345 344 346 348 347
331 331 330 329 327 328 328 327 326 326 332 336 335 335 336 335 336 333 333 335 343 344 343 347 349 350 337 344 353 352 353 353 353 353 351 355 352 350 347 347 345 347 347 348
329 328 329 328 328 327 327 328 327 325 325 328 329 337 337 336 337 335 335 333 340 345 345 346 348 349 347 347 353 352 352 352 352 353 353 354 353 350 348 345 345 347 347 348
326 328 329 327 328 328 328 329 328 326 325 327 326 326 333 337 334 334 332 334 344 343 342 344 347 348 349 352 353 352 352 352 352 353 353 352 353 351 350 347 345 346 348 347
328 330 331 331 329 328 329 329 328 328 328 326 326 328 336 337 341 341 340 343 341 341 341 341 341 344 346 349 351 353 352 355 355 354 353 354 353 353 351 352 349 347 346 347
325 326 329 329 329 328 329 328 328 328 327 328 330 337 335 336 339 341 342 340 339 338 338 338 338 339 339 344 347 354 354 352 355 357 355 355 354 352 352 349 350 349 348 348
322 328 328 328 329 331 327 327 328 331 332 331 333 333 333 332 338 336 337 335 337 338 337 336 335 335 336 341 345 350 353 355 353 356 356 355 355 353 352 350 346 349 348 347
322 326 327 328 327 327 328 329 330 330 333 331 331 331 330 330 334 330 330 330 330 331 334 336 336 334 334 336 342 343 353 354 356 354 355 355 355 354 353 351 348 345 346 346
327 326 326 327 330 330 331 328 328 329 333 329 329 329 329 328 329 331 328 327 327 328 329 330 332 333 333 334 340 338 350 354 357 356 354 356 356 355 354 352 349 347 345 344
332 332 331 330 333 332 330 327 327 331 330 326 326 326 327 326 327 325 326 326 326 325 326 328 329 331 334 333 336 339 342 352 354 356 355 354 357 356 355 354 353 349 346 345
328 328 327 327 330 331 326 327 329 327 325 325 325 325 324 325 325 325 324 324 324 324 324 324 325 328 330 333 333 340 339 339 350 352 354 354 354 357 356 355 354 353 348 346
326 328 328 329 330 327 326 325 324 324 324 324 325 325 324 324 324 324 324 324 325 326 326 325 324 324 327 333 332 336 339 340 342 351 355 355 353 355 356 355 355 354 352 347
326 325 327 326 327 325 325 325 325 325 325 325 324 324 324 324 324 324 323 323 323 324 325 325 326 324 325 329 333 332 336 339 343 344 351 353 352 354 354 354 353 353 354 348
326 326 326 326 326 324 325 324 323 323 323 324 325 325 325 324 323 324 324 323 325 325 324 323 324 326 325 328 333 332 332 338 340 338 339 351 351 352 354 354 354 352 353 350
325 325 325 325 324 324 323 323 322 324 325 325 325 325 325 325 325 323 324 324 324 324 324 326 325 326 328 327 333 332 332 337 338 337 339 349 352 351 352 354 353 350 349 348
Wind_Speed
17 3 8 14 9 6 5 6 6 8 9 3 3 8 11 17 27 21 21 26 32 39 35 33 30 27 29 26 24 22 23 22 21 19 14 20 24 22 19 20 21 20 13 9
6 9 16 14 8 9 7 2 8 8 9 4 7 11 15 12 11 19 28 25 34 32 36 33 31 27 28 29 27 27 23 22 21 16 12 14 19 25 23 15 20 19 15 10
8 12 12 4 3 7 8 6 8 8 5 7 7 9 9 3 15 12 22 29 25 34 37 35 34 31 29 30 29 28 21 21 20 13 10 8 10 14 24 23 21 21 16 20
7 11 9 5 6 5 5 11 11 8 6 4 3 10 13 6 8 8 16 19 23 35 37 39 38 35 31 30 29 26 23 20 17 14 14 16 14 12 14 21 24 23 13 14
10 10 6 6 9 8 7 8 7 7 5 5 12 1 8 7 4 6 7 8 3 30 40 44 41 37 36 33 36 27 23 19 19 18 20 16 17 14 12 14 20 27 22 21
10 22 6 4 6 6 7 5 9 7 0 3 10 3 7 3 7 3 9 11 7 22 40 43 41 38 38 33 31 28 26 21 20 19 20 20 17 15 14 14 18 22 16 21
13 18 12 9 4 7 7 3 4 5 2 5 10 4 5 12 5 6 8 10 9 17 37 39 41 40 37 34 34 32 28 23 19 18 20 19 18 16 12 16 17 23 21 21
7 12 18 8 7 7 4 5 5 6 4 5 4 6 3 3 9 10 19 11 13 5 26 32 39 40 39 37 36 35 32 24 19 19 17 14 14 13 13 17 17 21 23 22
4 7 6 9 6 4 5 5 6 4 6 3 5 7 6 6 8 15 20 26 25 5 18 26 31 38 40 38 40 36 31 24 20 17 15 14 16 14 14 12 18 19 21 20
5 5 7 11 1 6 7 6 6 5 3 6 7 3 3 2 5 12 17 22 26 24 24 31 13 36 38 37 37 34 30 24 20 16 15 16 17 14 15 12 17 23 24 21
5 3 9 9 5 3 6 4 4 3 4 2 3 4 2 12 15 17 21 27 25 25 24 23 28 41 37 33 33 32 27 24 21 17 16 17 18 15 16 18 12 26 25 19
5 0 3 9 12 9 7 4 6 4 7 4 3 4 13 18 16 21 21 18 20 24 27 35 21 16 19 32 26 27 25 23 21 18 19 17 16 15 16 19 19 25 16 18
4 4 4 10 11 4 8 13 10 10 3 1 2 1 9 17 8 10 12 12 9 12 19 27 31 14 11 19 26 24 23 25 22 17 21 21 19 17 17 18 23 26 20 23
4 2 4 5 7 9 9 13 13 5 3 5 4 3 4 3 6 10 8 10 5 10 13 15 23 22 8 32 34 27 26 27 24 22 22 26 23 21 18 14 25 30 25 23
5 2 5 8 9 11 14 14 14 11 8 5 8 9 7 13 9 4 16 2 12 15 16 17 16 20 20 9 21 21 27 28 27 24 23 23 22 23 24 19 19 32 29 25
4 3 4 5 8 10 11 12 12 10 9 8 8 7 7 20 14 10 9 9 18 14 11 16 16 16 16 12 11 19 19 18 22 28 26 23 20 23 26 26 23 25 29 30
5 4 4 4 7 11 8 9 12 13 10 3 5 5 10 8 11 10 8 15 14 11 12 13 16 20 22 16 15 10 20 22 21 26 29 29 25 25 27 29 29 27 28 28
6 3 2 4 4 7 8 9 8 8 18 14 11 10 12 14 19 23 18 18 14 10 16 16 16 19 18 18 20 15 9 17 28 26 31 31 31 30 30 28 34 32 32 31
10 4 1 2 4 7 7 7 8 5 8 14 12 11 18 18 12 17 14 10 10 12 11 9 14 18 16 19 21 24 15 15 28 33 32 35 34 33 33 34 34 35 35 35
4 5 4 3 5 6 3 14 24 6 3 17 14 11 12 12 4 3 16 13 13 14 14 16 16 21 21 17 20 25 18 13 22 34 33 35 35 36 36 36 37 36 36 35
3 3 2 3 5 2 5 12 18 2 4 20 22 24 17 5 10 21 23 19 17 17 17 19 18 20 24 23 18 21 22 14 12 27 29 30 35 36 34 34 34 37 38 35
3 2 4 3 3 3 7 7 4 5 7 14 17 21 22 23 24 22 20 23 25 25 25 24 25 24 24 24 20 20 24 22 16 20 26 29 33 36 36 35 36 34 35 36
3 1 2 1 1 11 19 13 12 13 13 16 20 20 18 21 24 26 25 25 23 20 21 23 23 27 26 24 24 20 23 21 22 18 22 28 29 32 34 35 38 37 37 32
3 15 3 5 8 16 19 18 19 20 19 21 27 28 27 28 28 27 27 27 30 28 26 24 27 30 29 25 27 25 23 23 23 21 22 25 28 32 34 36 36 37 37 33
2 6 5 4 6 19 5 26 26 29 29 31 30 30 31 32 31 25 24 26 27 27 29 29 29 33 30 29 28 28 27 26 26 29 26 28 30 31 36 38 41 38 39 39
7 3 2 3 13 11 23 30 32 29 29 26 26 30 33 30 32 27 28 30 30 30 28 28 33 31 31 31 26 28 26 27 28 28 26 26 26 30 34 38 42 37 32 32
Wind_Direction
238 200 248 258 257 287 51 2 312 307 300 155 223 272 274 266 193 193 197 197 184 181 196 186 180 187 194 195 196 201 199 199 201 209 210 203 210 209 216 210 214 227 217 209
269 238 239 257 290 325 330 274 290 289 286 50 314 284 277 265 198 193 194 203 194 184 191 182 181 180 192 194 193 191 196 197 208 208 214 223 217 215 218 218 220 228 228 232
227 254 275 229 326 309 318 290 261 243 307 348 317 304 298 324 141 171 197 207 199 195 184 178 180 179 187 183 186 186 190 199 204 198 198 201 190 210 217 222 230 227 236 246
251 265 274 332 332 303 260 283 314 328 24 300 298 293 305 200 162 181 220 219 208 189 185 181 182 184 189 191 187 190 192 204 208 211 203 225 220 233 234 227 232 228 238 214
250 275 248 236 241 257 266 315 320 316 303 350 295 309 278 128 135 184 175 91 311 175 178 179 183 184 189 190 189 201 204 209 208 209 227 226 220 237 253 235 228 221 230 207
277 289 269 222 306 333 320 360 299 285 7 331 275 102 358 276 184 169 117 121 52 168 177 179 183 185 186 193 197 197 205 206 211 214 221 225 226 237 244 233 219 218 230 188
266 258 249 217 224 270 263 260 310 328 36 212 254 317 187 253 140 127 160 127 94 145 174 174 179 185 184 191 199 198 201 206 213 215 218 226 239 245 242 216 205 211 208 192
271 313 192 191 190 216 294 202 181 286 270 237 348 335 300 355 93 57 117 135 152 162 161 175 186 190 188 189 199 198 200 203 215 214 219 224 233 243 232 209 211 202 203 201
2 327 351 135 197 107 289 338 263 318 295 3 152 184 322 30 42 86 70 42 26 44 167 170 184 193 191 194 197 201 201 201 213 214 214 213 232 244 216 216 192 203 194 195
344 343 342 326 162 216 187 230 359 346 345 318 320 343 237 64 41 62 46 42 25 18 30 123 162 215 194 196 194 201 199 204 209 216 215 217 229 236 214 197 201 194 198 199
43 49 306 342 302 333 338 313 255 258 124 164 300 295 143 66 56 60 40 27 21 12 13 30 210 184 182 184 192 192 197 199 206 214 216 217 224 225 220 213 198 196 200 223
25 290 298 273 290 305 308 345 354 133 277 201 188 311 95 67 48 57 58 16 5 6 5 31 51 177 174 177 186 193 199 201 209 220 216 218 217 213 218 212 197 188 201 194
15 328 349 338 340 343 19 332 334 329 48 349 77 298 79 90 46 60 36 0 11 347 346 19 42 116 102 246 194 204 206 205 213 219 214 220 220 217 216 219 199 192 204 197
126 274 218 220 259 303 326 323 325 338 354 311 285 150 51 129 156 239 216 278 285 55 15 14 30 47 141 226 211 206 210 217 219 219 217 216 221 218 219 214 208 200 208 209
130 228 290 297 307 313 314 310 308 312 295 304 286 297 186 204 195 212 289 22 78 48 21 4 12 26 19 43 205 208 213 218 221 219 220 218 222 221 217 206 207 208 210 222
319 267 250 277 286 303 317 320 318 307 301 287 311 10 54 106 112 106 122 81 76 62 29 4 358 357 11 15 30 221 224 228 225 221 223 218 222 224 216 215 210 210 213 220
310 320 348 287 323 315 316 301 301 296 301 76 76 104 69 45 64 40 76 68 57 44 22 5 5 352 341 336 340 9 235 242 230 223 219 218 218 227 225 215 216 220 218 221
248 250 200 258 306 271 257 273 303 33 23 25 77 68 69 73 81 72 63 48 35 353 340 343 337 331 333 345 336 316 286 252 236 233 221 226 223 224 228 224 218 217 220 225
205 190 260 201 238 285 296 350 3 68 49 23 30 40 41 21 83 62 50 41 7 356 2 338 319 313 313 335 324 322 303 278 235 232 229 230 232 230 230 230 225 223 220 222
104 119 125 313 274 267 19 359 351 345 67 353 20 24 22 10 9 229 358 347 340 328 314 330 329 317 317 320 332 324 313 312 241 231 237 235 230 234 234 234 231 227 227 226
15 351 250 274 269 273 341 14 351 282 290 344 1 358 351 336 314 317 318 323 316 315 321 298 302 310 308 306 319 323 313 314 267 246 244 242 243 241 239 237 236 232 229 230
292 282 282 273 293 303 41 53 76 231 308 328 321 320 322 321 325 318 305 299 300 299 296 299 288 288 301 299 298 316 309 307 286 267 249 248 242 240 239 240 241 237 232 229
334 117 215 135 257 55 35 48 23 4 353 334 334 323 307 301 299 304 310 308 305 318 317 296 286 288 293 291 293 300 311 301 298 273 250 247 246 238 237 238 240 236 232 227
358 35 41 20 9 4 350 15 360 350 334 317 306 304 305 298 294 288 287 298 299 298 302 305 306 291 297 295 284 287 296 296 292 295 265 251 246 241 236 240 235 236 233 227
32 13 351 272 2 349 326 328 320 314 304 296 293 291 290 285 285 292 290 284 291 285 290 294 294 303 290 294 282 287 287 287 292 291 283 256 249 243 241 239 237 230 231 225
26 43 355 288 325 305 296 300 303 303 299 302 301 296 291 292 285 285 288 288 279 279 286 297 293 300 292 290 281 285 287 283 292 293 288 256 253 251 248 245 243 237 227 225